Preview of NWS' New Version of Forecast
This preview is not operational and should not be used for support decisions.

Regional Weather Roundup (RWR)

Issued by Nashville, TN (OHX)

                            
000
ASUS44 KOHX 200810
RWROHX
MIDDLE TENNESSEE HOURLY WEATHER ROUNDUP
NATIONAL WEATHER SERVICE NASHVILLE TN
300 AM CDT MON MAY 20 2019

NOTE: "FAIR" INDICATES FEW OR NO CLOUDS BELOW 12,000 FEET WITH
NO SIGNIFICANT WEATHER AND/OR OBSTRUCTIONS TO VISIBILITY.

* THESE REPORTS ARE NOT UNDER NWS QUALITY CONTROL AND MAY NOT
  REPORT WEATHER SUCH AS PRECIPITATION AND FOG.


TNZ005>011-023>034-057-059-062>066-078-080-200900
...NORTHERN MIDDLE TENNESSEE...
  
CITY           SKY/WX    TMP DP  RH WIND       PRES   REMARKS
CLARKSVILLE      N/A     65  63  93 W3        29.97R FOG              
CROSSVILLE       N/A     62  56  80 SW3       30.03S                  
DICKSON        CLEAR     66  64  94 CALM      29.98R                  
LEBANON        CLOUDY    68  66  94 SW6       29.95S                  
LIVINGSTON     MOCLDY    66  64  94 SW8       29.98S                  
NASHVILLE      MOCLDY    70  65  84 W3        29.97R                  
PORTLAND       CLOUDY    68  66  94 CALM      29.96R                  
ROCKWOOD       CLOUDY    68  59  73 W7        30.00S                  
SMYRNA         CLOUDY    66  66 100 CALM      29.99R                  
SPARTA         FOG       61  61 100 S3        29.98S VSB 1/2          
SPRINGFIELD    MOCLDY    66  64  94 CALM      29.96R FOG              
WEST NASHVILLE CLEAR     68  66  94 CALM      29.96R                  
$$
TNZ056-058-060-061-075>077-079-093>097-200900
...SOUTHERN MIDDLE TENNESSEE...
  
CITY           SKY/WX    TMP DP  RH WIND       PRES   REMARKS
COLUMBIA       CLOUDY    68  68 100 SW6       29.97R                  
FAYETTEVILLE   CLOUDY    68  68 100 SW7       30.00R                  
LAWRENCEBURG   PTCLDY    66  64  94 NW7       30.00R                  
LEWISBURG      PTCLDY    64  63  94 CALM      29.98R FOG              
MCMINNVILLE    CLEAR     66  64  94 SW5       29.99S                  
MURFREESBORO   CLEAR     68  66  94 SW7       29.96R                  
PULASKI        CLOUDY    66  64  94 CALM      29.99R                  
SHELBYVILLE    CLEAR     64  64 100 CALM      29.99R FOG              
TULLAHOMA      PTCLDY    64  63  94 SW5       29.99S                  
WINCHESTER     CLEAR     63  61  94 CALM      30.00S                  
$$


...KEY TO REMARKS...
VSB - VISIBILITY IN MILES
WCI - WIND CHILL INDEX
HX  - HEAT INDEX